Find Starlink 4673

NORAD ID: 53589 • Int'l Des: 2022-104 • Owner: SPXS • Country: US • Constellation: starlink • operational
LEOCIRCULAR

現在のビュー

3D地球を読み込み中...

About Starlink 4673

Starlink 4673 (NORAD 53589) is a starlink constellation satellite (v1.5) launched Aug 28, 2022 by SPXS of US. It operates in LEO, CIRCULAR orbit with a mass of 300.00 kg.

次回通過

Passes for default location (London). Set your location on the main map for personalized predictions.

高度履歴

Loading altitude history...

軌道要素

1 53589U 22104B 26266.68938473 .00000530 00000-0 26831-4 0 9991
2 53589 53.1596 58.6175 0000938 73.6050 286.5056 15.34389828226063
Epoch: Sep 23, 2026 • Age: 27 hours

現在のステータス

高度 468.5 km
遠地点 / 近地点 N/A
速度 7.64 km/s
衛星直下点 52.80°N, 163.51°W
打ち上げ日 Aug 28, 2022
運用期間 4 years
タイプ internet

技術仕様

分類 Payload
質量 300.00 kg
乾燥質量 290.00 kg
長さ 0.20 m
スパン 9.00 m
形状 ? Box + pan
製造者 SPXS
バスタイプ Starlink
フェーズステータス In Orbit
所有者/国 SPXS/US

Most Searched